Location: Bohy
(49.9380°N, 13.5753°E)
Time: 00:24:55
(UTC+00:00)

Cosmos 2360 Rocket - Pass Details

Date: 19 May 2025
Orbit: 834 x 842 km, 71.0° (Epoch: 15 June)

Event Time Altitude Azimuth Distance (km) Brightness Sun altitude
Rises 23:09:36 0° 329° (NNW) 3,394 6.3 -20.1°
Reaches altitude 10° 23:12:03 10° 326° (NW) 2,456 5.4 -20.0°
Maximum altitude 23:17:37 64° 247° (WSW) 924 2.2 -20.0°
Enters shadow 23:19:36 39° 182° (S) 1,234 2.5 -20.0°
